TITAN 3C TRANSTAGE DEB, 43513

Orbit data source: Space-Track

TITAN 3C TRANSTAGE DEB, 43513 is space debris in GEO originally from a launch on Sun, 09 Feb 1969 UTC launched from the Air Force Eastern Test Range (AFETR). Debris objects in space refer to the collection of defunct objects orbiting the Earth. Examples of debris include non-operational satellites, rocket bodies, and fragments generated from explosions, collisions, or faulty payload assembly.

Not visible in the next 10 days
Identifier
43513, 1969-013R
Orbit
GEO
Country
Flag of USUS
Related business
Manufacturer
Martin Marietta
Mission
Spacecraft
Bus & Motor
Unknown
Mass
Unknown
Launch date (UTC)
1969-02-09 (58 years ago)
Launch vehicle
Unknown
Launch site
Air Force Eastern Test Range (AFETR)
Object type
Payload
Rocket body
Debris
Shape & HBR
Unknown shape, 1.1 m
Radar Cross Section
Medium (>0.1 m² and <1 m²)

Expand to show TLE details & history
Last TLE update: 2 days ago

TLE from 2 days ago
0 TITAN 3C TRANSTAGE DEB
1 43513U 69013R   26254.14163831 -.00000076  00000-0  00000-0 0  9995
2 43513   1.6219 124.1634 0047271 273.7056  86.3461  0.95266489 29209
Epoch: 2026-09-11T03:23Z
TLE epoch observation values (Epoch: 2026-09-11T03:23:57.549Z)
Latitude
0.00002°
Longitude
83.59611°
Altitude
37,239.344 km
Speed
3.023 km/s
True Right ascension
08h 19m 01s
True Declination
0° 00' 00"
Sunlit
Object was in daylight at epoch
Visualization orbit readout
Latitude
Unknown
Longitude
Unknown
Altitude
Unknown
Speed
Unknown
Apparent Right ascension
Unknown
Apparent Declination
Unknown
Sunlit
N/A
Visualization observer readout
Local Sidereal Time
11:15:10
Azimuth
Unknown
Elevation
Unknown
Doppler factor
Unknown
Orbital elements
Apogee altitude
37,458.122 km
Perigee altitude
37,045.635 km
Semi-major axis
43,630.016 km
Eccentricity
0.00473
Inclination
1.6219°
RAAN
124.1634°
Arg. of periapsis
273.7056°
True anomaly
86.88688°
Mean anomaly
86.3461°
Eccentric anomaly
86.61647°
Mean motion
0.23816 °/min
Orbital period
1,511.6 mins
BSTAR
0
Loading maneuver chart data...
Computing Atmospheric mass density...

Documentation

Showing up to 5 results
|